EW7659 Weather Reports


Display with metric or nautical units.
time (UTC)temp
F
wind
direction
speed
MPH
gust
MPH
rain 1hr
in
rain 24hr
in
rain mn
in
humidity
%
barometer
mb
20260509010105 66 218 0.0 0.0 0.00 0.03 0.03 75 1002.7
20260509005605 66 218 0.0 0.0 0.00 0.03 0.03 75 1002.6
20260509005105 67 214 0.0 0.0 0.00 0.03 0.03 74 1002.5
20260509004605 67 215 0.0 2.0 0.00 0.03 0.03 73 1002.6
20260509004105 67 214 0.0 7.0 0.00 0.03 0.03 72 1002.5
20260509003605 68 196 1.0 7.0 0.00 0.03 0.03 71 1002.4
20260509003106 69 241 1.0 6.0 0.00 0.03 0.03 72 1002.3
20260509002603 69 198 0.0 6.0 0.00 0.03 0.03 73 1002.2
20260509002104 70 311 0.0 0.0 0.00 0.03 0.03 74 1001.9
20260509001601 71 170 0.0 0.0 0.00 0.03 0.03 73 1001.7
20260509001059 71 238 0.0 1.0 0.00 0.03 0.03 74 1001.8
20260509000820 71 182 0.0 4.0 0.00 0.03 0.03 74 1001.7
20260509000059 71 182 0.0 6.0 0.00 0.03 0.03 74 1001.4
20260508235559 70 181 0.0 7.0 0.00 0.03 0.03 75 1001.1
20260508235053 70 197 0.0 1.0 0.00 0.03 0.03 75 1000.9
20260508234553 69 177 0.0 1.0 0.00 0.03 0.03 76 1000.7
20260508234056 69 167 0.0 0.0 0.00 0.03 0.03 78 1000.6
20260508233554 68 166 0.0 0.0 0.00 0.03 0.03 78 1000.5
20260508233054 67 166 0.0 1.0 0.00 0.03 0.03 80 1000.6
20260508232549 67 166 0.0 1.0 0.00 0.03 0.03 78 1000.3
20260508232056 67 166 0.0 0.0 0.00 0.03 0.03 78 1000.1
20260508231551 67 166 0.0 0.0 0.00 0.03 0.03 79 1000.3
20260508231054 67 166 0.0 0.0 0.01 0.03 0.03 78 1000.2
20260508230548 67 166 0.0 0.0 0.01 0.03 0.03 77 1000.2
20260508230050 67 166 0.0 0.0 0.01 0.03 0.03 77 1000.1
20260508225542 67 166 0.0 0.0 0.02 0.02 0.03 76 999.7
20260508225045 67 166 0.0 0.0 0.02 0.02 0.03 76 999.8
20260508224543 67 166 0.0 0.0 0.02 0.02 0.03 76 1000.0
20260508224043 67 167 0.0 0.0 0.02 0.02 0.03 75 1000.5
20260508223545 67 167 0.0 0.0 0.02 0.02 0.03 76 1000.6
20260508223043 67 167 0.0 3.0 0.02 0.02 0.03 77 1000.6
20260508222543 67 166 0.0 3.0 0.02 0.02 0.03 76 1000.5
20260508222043 68 167 1.0 9.0 0.02 0.02 0.03 76 1000.8
20260508221802 68 169 0.0 9.0 0.02 0.02 0.03 76 1000.8
20260508221038 68 164 0.0 2.0 0.01 0.02 0.02 77 1000.8
20260508220539 68 148 0.0 0.0 0.01 0.02 0.02 77 1001.0
20260508220257 68 172 0.0 0.0 0.01 0.02 0.02 78 1001.3
20260508215539 68 175 0.0 0.0 0.01 0.01 0.01 80 1001.9
20260508215257 69 175 0.0 0.0 0.01 0.01 0.01 80 1002.0
20260508214806 69 175 0.0 0.0 0.01 0.01 0.01 79 1002.0
20260508214042 69 175 0.0 0.0 0.01 0.01 0.01 79 1002.1
20260508213541 70 175 0.0 0.0 0.01 0.01 0.01 78 1001.9
20260508213523 70 175 0.0 0.0 0.01 0.01 0.01 74 1001.8
20260508212534 70 175 0.0 0.0 0.01 0.01 0.01 73 1001.8
20260508212038 71 175 0.0 0.0 0.01 0.01 0.01 73 1002.2
20260508211534 71 175 0.0 0.0 0.01 0.01 0.01 69 1002.0
20260508211034 72 175 0.0 0.0 0.01 0.01 0.01 69 1002.3
20260508210534 73 175 0.0 0.0 0.01 0.01 0.01 70 1003.0
20260508210032 74 175 0.0 0.0 0.01 0.01 0.01 62 1002.8
20260508205534 75 175 0.0 0.0 0.00 0.00 0.00 56 1003.0
20260508205038 75 175 0.0 0.0 0.00 0.00 0.00 56 1003.2
20260508204534 75 175 0.0 0.0 0.00 0.00 0.00 52 1003.4
20260508204033 75 175 0.0 0.0 0.00 0.00 0.00 52 1003.1
20260508203534 76 175 0.0 0.0 0.00 0.00 0.00 51 1002.9
20260508203252 76 174 0.0 0.0 0.00 0.00 0.00 51 1002.8
20260508202530 76 174 0.0 2.0 0.00 0.00 0.00 50 1002.8
20260508202252 76 174 0.0 5.0 0.00 0.00 0.00 50 1002.8
20260508201737 77 147 0.0 9.0 0.00 0.00 0.00 50 1002.8
20260508201010 77 171 1.0 9.0 0.00 0.00 0.00 50 1002.8
20260508200517 77 165 1.0 9.0 0.00 0.00 0.00 48 1002.8
20260508200006 77 172 0.0 7.0 0.00 0.00 0.00 48 1002.8
20260508195506 77 193 0.0 7.0 0.00 0.00 0.00 47 1003.0
20260508195006 78 119 0.0 8.0 0.00 0.00 0.00 47 1003.0
20260508194506 78 193 1.0 12.0 0.00 0.00 0.00 47 1003.0
20260508194228 78 254 1.0 12.0 0.00 0.00 0.00 47 1003.1
20260508193505 78 153 0.0 6.0 0.00 0.00 0.00 45 1003.1
20260508193009 79 161 1.0 13.0 0.00 0.00 0.00 46 1003.1
20260508192505 79 242 1.0 13.0 0.00 0.00 0.00 44 1003.2
20260508192005 79 204 0.0 8.0 0.00 0.00 0.00 49 1003.2
20260508191949 79 253 0.0 8.0 0.00 0.00 0.00 48 1003.3
20260508191006 78 146 0.0 7.0 0.00 0.00 0.00 47 1003.3
20260508190728 78 217 0.0 6.0 0.00 0.00 0.00 47 1003.4
20260508190006 78 263 0.0 1.0 0.00 0.00 0.00 49 1003.5
20260508185507 78 215 0.0 1.0 0.00 0.00 0.00 49 1003.5
20260508185008 78 199 0.0 4.0 0.00 0.00 0.00 49 1003.5
20260508184505 78 154 0.0 6.0 0.00 0.00 0.00 47 1003.5
20260508184001 78 155 0.0 6.0 0.00 0.00 0.00 47 1003.4
20260508183457 77 197 0.0 6.0 0.00 0.00 0.00 50 1003.5
20260508182952 77 189 0.0 6.0 0.00 0.00 0.00 47 1003.5
20260508182451 77 144 1.0 9.0 0.00 0.00 0.00 48 1003.6
20260508181953 77 167 1.0 9.0 0.00 0.00 0.00 48 1003.7
20260508181450 77 190 1.0 8.0 0.00 0.00 0.00 47 1003.8
20260508180957 77 186 1.0 8.0 0.00 0.00 0.00 49 1003.9
20260508180713 76 225 1.0 9.0 0.00 0.00 0.00 51 1004.0
20260508175951 75 223 1.0 9.0 0.00 0.00 0.00 49 1004.2
20260508175449 75 163 1.0 14.0 0.00 0.00 0.00 50 1004.2
20260508174948 75 192 2.0 14.0 0.00 0.00 0.00 50 1004.1
20260508174447 76 189 2.0 12.0 0.00 0.00 0.00 48 1004.1
20260508173948 76 169 1.0 14.0 0.00 0.00 0.00 51 1004.3
20260508173446 75 161 2.0 14.0 0.00 0.00 0.00 50 1004.3
20260508172952 75 124 2.0 12.0 0.00 0.00 0.00 50 1004.4
20260508172443 75 230 1.0 9.0 0.00 0.00 0.00 50 1004.6
20260508171943 75 142 1.0 7.0 0.00 0.00 0.00 52 1004.6
20260508171658 75 217 1.0 11.0 0.00 0.00 0.00 50 1004.7
20260508170943 75 185 1.0 14.0 0.00 0.00 0.00 50 1004.8
20260508170436 75 161 1.0 17.0 0.00 0.00 0.00 51 1005.0
20260508165935 75 169 1.0 17.0 0.00 0.00 0.00 50 1005.1
20260508165437 75 163 2.0 11.0 0.00 0.00 0.00 52 1005.3
20260508164930 74 157 2.0 11.0 0.00 0.00 0.00 51 1005.3
20260508164424 74 232 1.0 10.0 0.00 0.00 0.00 52 1005.4
20260508163920 74 177 2.0 19.0 0.00 0.00 0.00 52 1005.5
20260508163421 73 161 2.0 19.0 0.00 0.00 0.00 51 1005.4
20260508163355 73 155 2.0 14.0 0.00 0.00 0.00 52 1005.5
20260508162417 73 180 2.0 14.0 0.00 0.00 0.00 51 1005.5
20260508161915 73 174 1.0 13.0 0.00 0.00 0.00 51 1005.5
20260508161634 73 191 1.0 13.0 0.00 0.00 0.00 52 1005.7
20260508161355 72 159 1.0 13.0 0.00 0.00 0.00 52 1005.7
20260508160415 72 152 1.0 14.0 0.00 0.00 0.00 53 1005.8
20260508155913 72 188 2.0 14.0 0.00 0.00 0.00 54 1005.9
20260508155413 72 159 1.0 12.0 0.00 0.00 0.00 53 1005.9
20260508154913 71 182 0.0 11.0 0.00 0.00 0.00 55 1005.8
20260508154630 71 259 1.0 7.0 0.00 0.00 0.00 58 1006.0
20260508153908 71 182 1.0 11.0 0.00 0.00 0.00 56 1005.9
20260508153407 70 188 1.0 11.0 0.00 0.00 0.00 57 1006.0
20260508152906 70 223 1.0 9.0 0.00 0.00 0.00 58 1006.0
20260508152626 70 125 1.0 13.0 0.00 0.00 0.00 57 1006.1
20260508151905 69 173 2.0 13.0 0.00 0.00 0.00 58 1006.1
20260508151406 69 178 1.0 9.0 0.00 0.00 0.00 58 1006.2
20260508150905 69 154 0.0 8.0 0.00 0.00 0.00 58 1006.2
20260508150408 69 163 1.0 11.0 0.00 0.00 0.00 58 1006.4
20260508150120 69 171 1.0 16.0 0.00 0.00 0.00 57 1006.5
20260508145354 69 161 1.0 16.0 0.00 0.00 0.00 59 1006.5
20260508144851 69 167 0.0 7.0 0.00 0.00 0.00 59 1006.6
20260508144354 69 213 0.0 7.0 0.00 0.00 0.00 60 1006.7
20260508143848 68 161 0.0 5.0 0.00 0.00 0.00 60 1006.8
20260508143343 67 168 1.0 6.0 0.00 0.00 0.00 61 1006.9
20260508142845 67 157 1.0 6.0 0.00 0.00 0.00 61 1007.0
20260508142340 67 162 1.0 9.0 0.00 0.00 0.00 63 1007.0
20260508141841 66 202 0.0 9.0 0.00 0.00 0.00 63 1007.2
20260508141602 66 185 0.0 5.0 0.00 0.00 0.00 64 1007.2
20260508140843 65 176 0.0 7.0 0.00 0.00 0.00 66 1007.2
20260508140340 64 185 0.0 7.0 0.00 0.00 0.00 67 1007.4
20260508135844 64 164 0.0 6.0 0.00 0.00 0.00 71 1007.4
20260508135340 63 164 0.0 6.0 0.00 0.00 0.00 69 1007.4
20260508134838 62 172 1.0 7.0 0.00 0.00 0.00 71 1007.4
20260508134337 62 213 1.0 7.0 0.00 0.00 0.00 71 1007.5
20260508133839 61 175 0.0 4.0 0.00 0.00 0.00 72 1007.6
20260508133344 60 178 0.0 4.0 0.00 0.00 0.00 73 1007.5
20260508132836 59 178 0.0 4.0 0.00 0.00 0.00 75 1007.6
20260508132337 58 178 0.0 1.0 0.00 0.00 0.00 76 1007.5
20260508131834 58 178 0.0 0.0 0.00 0.00 0.00 76 1007.5
20260508131337 57 178 0.0 0.0 0.00 0.00 0.00 77 1007.5
20260508130833 56 178 0.0 1.0 0.00 0.00 0.00 78 1007.5
20260508130334 56 178 0.0 1.0 0.00 0.00 0.00 79 1007.5
20260508125833 55 178 0.0 0.0 0.00 0.00 0.00 79 1007.5
20260508125333 55 179 0.0 0.0 0.00 0.00 0.00 80 1007.4
20260508125320 54 179 0.0 0.0 0.00 0.00 0.00 80 1007.5
20260508124332 54 179 0.0 0.0 0.00 0.00 0.00 81 1007.4
20260508124101 54 179 0.0 0.0 0.00 0.00 0.00 81 1007.4
20260508123821 53 178 0.0 1.0 0.00 0.00 0.00 81 1007.3
20260508122826 53 178 0.0 1.0 0.00 0.00 0.00 81 1007.3
20260508122329 52 178 0.0 2.0 0.00 0.00 0.00 82 1007.3
20260508121831 52 179 0.0 2.0 0.00 0.00 0.00 82 1007.2
20260508121329 52 175 0.0 1.0 0.00 0.00 0.00 82 1007.2
20260508120825 52 174 0.0 0.0 0.00 0.00 0.00 81 1007.2
20260508120323 52 174 0.0 1.0 0.00 0.00 0.00 81 1007.2
20260508115820 52 175 0.0 1.0 0.00 0.00 0.00 80 1007.3
20260508115323 52 175 0.0 3.0 0.00 0.00 0.00 79 1007.3
20260508115059 52 175 0.0 3.0 0.00 0.00 0.00 79 1007.4
20260508114543 53 175 0.0 3.0 0.00 0.00 0.00 78 1007.3
20260508114538 53 175 0.0 3.0 0.00 0.00 0.00 79 1007.4
20260508113314 53 175 0.0 1.0 0.00 0.00 0.00 78 1007.3
20260508112820 53 176 0.0 0.0 0.00 0.00 0.00 79 1007.0
20260508112316 52 176 0.0 0.0 0.00 0.00 0.00 79 1006.8
20260508111814 52 176 0.0 0.0 0.00 0.00 0.00 80 1006.9
20260508111320 52 176 0.0 0.0 0.00 0.00 0.00 80 1006.9
20260508110815 52 176 0.0 0.0 0.00 0.00 0.00 80 1006.9
20260508110315 51 176 0.0 0.0 0.00 0.00 0.00 81 1006.9
20260508105818 51 176 0.0 0.0 0.00 0.00 0.00 81 1006.8
20260508105312 51 176 0.0 0.0 0.00 0.00 0.00 81 1006.8
20260508104815 51 176 0.0 0.0 0.00 0.00 0.00 81 1006.8
20260508104314 51 176 0.0 0.0 0.00 0.00 0.00 81 1006.9
20260508104026 51 176 0.0 0.0 0.00 0.00 0.00 81 1006.8
20260508103306 51 176 0.0 0.0 0.00 0.00 0.00 81 1006.8
20260508102806 51 176 0.0 0.0 0.00 0.00 0.00 80 1006.9
20260508102529 51 176 0.0 0.0 0.00 0.00 0.00 80 1006.8
20260508101806 51 176 0.0 0.0 0.00 0.00 0.00 79 1006.8
20260508101306 51 176 0.0 0.0 0.00 0.00 0.00 79 1006.8
20260508101022 51 176 0.0 0.0 0.00 0.00 0.00 79 1006.8
20260508100305 51 176 0.0 0.0 0.00 0.00 0.00 79 1006.8
20260508095806 51 176 0.0 0.0 0.00 0.00 0.00 78 1006.8
20260508095306 51 176 0.0 0.0 0.00 0.00 0.00 78 1006.8
20260508094803 52 176 0.0 0.0 0.00 0.00 0.00 76 1006.7
20260508094307 52 176 0.0 0.0 0.00 0.00 0.00 76 1006.6
20260508093802 53 176 0.0 0.0 0.00 0.00 0.00 75 1006.6
20260508093307 53 176 0.0 0.0 0.00 0.00 0.00 75 1006.5
20260508092802 53 176 0.0 0.0 0.00 0.00 0.00 75 1006.5
20260508092312 53 176 0.0 0.0 0.00 0.00 0.00 74 1006.4
20260508092021 53 176 0.0 0.0 0.00 0.00 0.00 74 1006.3
20260508091302 53 176 0.0 0.0 0.00 0.00 0.00 74 1006.2
20260508090802 54 176 0.0 0.0 0.00 0.00 0.00 73 1006.2
20260508090302 54 176 0.0 0.0 0.00 0.00 0.00 73 1006.2
20260508090031 54 176 0.0 0.0 0.00 0.00 0.00 72 1006.1
20260508085754 54 176 0.0 0.0 0.00 0.00 0.00 72 1006.2
20260508084801 54 176 0.0 1.0 0.00 0.00 0.00 72 1006.1
20260508084303 54 176 0.0 1.0 0.00 0.00 0.00 72 1006.2
20260508083802 54 176 0.0 0.0 0.00 0.00 0.00 72 1006.2
20260508083540 54 176 0.0 0.0 0.00 0.00 0.00 72 1006.1
20260508082804 54 176 0.0 0.0 0.00 0.00 0.00 72 1006.1
20260508082306 54 176 0.0 0.0 0.00 0.00 0.00 72 1006.2
20260508081231 54 176 0.0 0.0 0.00 0.00 0.00 71 1006.2
20260508080730 55 176 0.0 0.0 0.00 0.00 0.00 71 1006.3
20260508080230 55 176 0.0 0.0 0.00 0.00 0.00 71 1006.4
20260508075730 55 176 0.0 0.0 0.00 0.00 0.00 70 1006.6
20260508075230 55 176 0.0 0.0 0.00 0.00 0.00 70 1006.7
20260508074726 55 176 0.0 0.0 0.00 0.00 0.00 70 1006.8
20260508074227 55 176 0.0 0.0 0.00 0.00 0.00 70 1006.8
20260508073725 55 176 0.0 0.0 0.00 0.00 0.00 70 1006.8
20260508073223 55 176 0.0 0.0 0.00 0.00 0.00 70 1006.8
20260508072721 55 176 0.0 0.0 0.00 0.00 0.00 70 1006.9
20260508072436 55 176 0.0 0.0 0.00 0.00 0.00 71 1007.0
20260508071716 55 176 0.0 0.0 0.00 0.00 0.00 71 1007.0
20260508071215 55 176 0.0 0.0 0.00 0.00 0.00 71 1007.2
20260508070711 55 176 0.0 0.0 0.00 0.00 0.00 70 1007.3
20260508070211 55 176 0.0 0.0 0.00 0.00 0.00 70 1007.3
20260508065709 55 176 0.0 1.0 0.00 0.00 0.00 70 1007.3
20260508065207 55 177 0.0 5.0 0.00 0.00 0.00 70 1007.3
20260508065146 55 177 0.0 5.0 0.00 0.00 0.00 70 1007.3
20260508064203 55 176 0.0 0.0 0.00 0.00 0.00 70 1007.3
20260508063703 56 176 0.0 0.0 0.00 0.00 0.00 69 1007.3
20260508063202 56 176 0.0 1.0 0.00 0.00 0.00 69 1007.3
20260508062702 56 176 0.0 4.0 0.00 0.00 0.00 69 1007.3
20260508062202 56 176 0.0 6.0 0.00 0.00 0.00 69 1007.4
20260508061702 56 175 0.0 6.0 0.00 0.00 0.00 68 1007.4
20260508061202 56 175 0.0 2.0 0.00 0.00 0.00 68 1007.4
20260508060703 56 175 0.0 2.0 0.00 0.00 0.00 68 1007.4
20260508060203 56 175 0.0 1.0 0.00 0.00 0.00 67 1007.4
20260508060151 56 175 0.0 0.0 0.00 0.00 0.00 67 1007.5
20260508055201 56 175 0.0 0.0 0.00 0.00 0.00 67 1007.5
20260508054658 56 175 0.0 0.0 0.00 0.00 0.00 67 1007.4
20260508054424 56 175 0.0 2.0 0.00 0.00 0.00 66 1007.4
20260508053704 56 175 0.0 2.0 0.00 0.00 0.00 66 1007.4
20260508053200 57 175 0.0 1.0 0.00 0.00 0.00 65 1007.5
20260508052655 57 175 0.0 2.0 0.00 0.00 0.00 65 1007.6
20260508052419 57 175 0.0 2.0 0.00 0.00 0.00 65 1007.6
20260508051655 57 174 0.0 1.0 0.00 0.00 0.00 64 1007.6
20260508051152 57 174 0.0 5.0 0.00 0.00 0.00 64 1007.6
20260508050651 58 174 0.0 5.0 0.00 0.00 0.00 64 1007.6
20260508050149 58 174 0.0 2.0 0.00 0.00 0.00 63 1007.6
20260508045646 58 183 0.0 1.0 0.00 0.00 0.00 63 1007.7
20260508045145 58 182 0.0 1.0 0.00 0.00 0.00 63 1007.7
20260508044642 58 182 0.0 3.0 0.00 0.00 0.00 63 1007.8
20260508044141 58 183 0.0 3.0 0.00 0.00 0.00 63 1007.8
20260508043638 58 182 0.0 6.0 0.00 0.00 0.00 62 1007.8
20260508043137 58 182 1.0 6.0 0.00 0.00 0.00 62 1007.9
20260508042638 58 183 1.0 3.0 0.00 0.00 0.00 61 1008.0
20260508042132 59 183 0.0 4.0 0.00 0.00 0.00 61 1008.1
20260508041632 59 182 1.0 4.0 0.00 0.00 0.00 61 1008.1
20260508041130 59 182 0.0 4.0 0.00 0.00 0.00 60 1008.1
20260508040630 59 182 1.0 5.0 0.00 0.00 0.00 60 1008.0
20260508040348 59 182 1.0 5.0 0.00 0.00 0.00 60 1008.0
20260508035630 59 180 0.0 1.0 0.00 0.00 0.00 60 1008.0
20260508035133 60 181 0.0 1.0 0.00 0.00 0.00 60 1008.0
20260508034631 60 181 0.0 1.0 0.00 0.00 0.00 59 1008.1
20260508034135 60 181 0.0 0.0 0.00 0.00 0.00 59 1008.0
20260508033630 60 181 0.0 0.0 0.00 0.00 0.00 58 1008.1
20260508033130 60 181 0.0 0.0 0.00 0.00 0.00 58 1008.1
20260508032630 60 181 0.0 0.0 0.00 0.00 0.00 57 1008.1
20260508032130 61 181 0.0 0.0 0.00 0.00 0.00 56 1008.0
20260508031628 61 181 0.0 0.0 0.00 0.00 0.00 55 1008.1
20260508031126 62 181 0.0 0.0 0.00 0.00 0.00 54 1008.2
20260508030627 62 181 0.0 3.0 0.00 0.00 0.00 54 1008.1
20260508030126 62 181 0.0 3.0 0.00 0.00 0.00 54 1008.1
20260508025626 62 181 0.0 0.0 0.00 0.00 0.00 53 1008.2
20260508025126 62 181 0.0 0.0 0.00 0.00 0.00 53 1008.2
20260508024621 62 181 0.0 0.0 0.00 0.00 0.00 53 1008.2
20260508024339 62 181 0.0 0.0 0.00 0.00 0.00 52 1008.2
20260508023609 63 181 0.0 0.0 0.00 0.00 0.00 52 1008.2
20260508023105 63 181 0.0 1.0 0.00 0.00 0.00 52 1008.1
20260508022604 63 181 0.0 1.0 0.00 0.00 0.00 51 1008.2
20260508022103 63 181 0.0 1.0 0.00 0.00 0.00 51 1008.1
20260508022043 63 181 0.0 0.0 0.00 0.00 0.00 51 1008.1
20260508021058 64 181 0.0 0.0 0.00 0.00 0.00 50 1008.0
20260508020821 64 181 0.0 0.0 0.00 0.00 0.00 50 1007.9
20260508020056 64 181 0.0 1.0 0.00 0.00 0.00 49 1007.9
20260508015557 64 181 0.0 1.0 0.00 0.00 0.00 49 1007.8
20260508015056 65 181 0.0 0.0 0.00 0.00 0.00 49 1007.7
20260508014556 65 181 0.0 1.0 0.00 0.00 0.00 49 1007.6
20260508014056 65 181 0.0 1.0 0.00 0.00 0.00 48 1007.5
20260508013553 66 181 0.0 0.0 0.00 0.00 0.00 48 1007.5
20260508013053 66 181 0.0 0.0 0.00 0.00 0.00 47 1007.4
20260508012815 66 181 0.0 0.0 0.00 0.00 0.00 46 1007.3
20260508012052 67 181 0.0 1.0 0.00 0.00 0.00 46 1007.3
20260508011551 67 181 0.0 1.0 0.00 0.00 0.00 46 1007.3
20260508011048 67 181 0.0 0.0 0.00 0.00 0.00 45 1007.3
20260508010548 68 181 0.0 0.0 0.00 0.00 0.00 45 1007.2